[[{"header":{"parameterUnit":"m.s-1","parameterCategory":1,"la1":30.2991,"la2":30.254,"lo1":-89.0895,"lo2":-89.0444,"dy":0.0017,"dx":0.0017,"nx":28,"ny":28,"refTime":"2023-11-12T09:00:00:Z","depth":0,"parameterNumber":2,"parameterNumberName":"U-component_of_WINDS"},"data":[0,0,0,0,0,0,0,0,0,0,0,0,0,0,0,0,0,0,0,0,0,0,0,0,0,0,0,0,0,0,0,0,0,0,0,0,0,0,0,0,0,0,0,0,0,0,0,0,0,0,0,0,0,0,0,0,0,0,-5.1197,-5.1197,0,-5.1167,-5.1166,-5.1166,-5.1009,-5.1005,-5.1002,-5.0998,-5.097,-5.0973,-5.0976,0,0,0,0,0,0,0,0,0,0,0,0,0,-5.1122,-5.1124,-5.1197,-5.1197,-5.1196,-5.1167,-5.1166,-5.1166,-5.101,-5.1005,-5.1001,-5.0996,-5.097,-5.0973,-5.0976,0,0,0,0,0,0,0,0,0,0,0,0,0,-5.113,-5.1125,-5.1197,-5.1115,-5.1107,-5.1167,-5.1166,-5.1166,-5.1011,-5.1005,-5.0999,-5.0994,-5.0968,-5.0972,-5.0977,-5.1114,0,0,-5.0989,-5.0991,0,0,0,0,0,0,0,0,-5.1129,-5.1133,-5.1127,-5.112,-5.1112,-5.1086,-5.1129,-5.1149,-5.1012,-5.1047,-5.0998,-5.0991,-5.1014,-5.1014,-5.102,-5.1113,-5.1112,-5.099,-5.0992,-5.0994,-5.0995,0,0,0,0,0,0,0,-5.1129,-5.1133,-5.1185,-5.1127,-5.1118,-5.108,-5.1075,-5.1132,-5.1063,-5.1044,-5.1032,-5.1031,-5.1008,-5.1017,-5.1019,-5.1111,-5.0989,-5.0993,-5.0996,-5.0997,-5.1315,-5.132,0,0,0,0,0,0,-5.114,-5.1134,-5.1186,-5.1184,-5.1107,-5.1086,-5.108,-5.11,-5.1061,-5.105,-5.1036,-5.1024,-5.1013,-5.1014,-5.1017,-5.1175,-5.0994,-5.0998,-5.1,-5.1309,-5.1316,-5.1322,0,0,0,0,0,0,-5.1139,-5.1146,-5.1187,-5.1156,-5.1158,-5.1093,-5.1117,-5.1102,-5.111,-5.1055,-5.1042,-5.1057,-5.1008,-5.1011,-5.1091,-5.1172,-5.0999,-5.1003,-5.1302,-5.1311,-5.1319,-5.1494,0,0,0,0,0,0,-5.1137,-5.1146,-5.1198,-5.1158,-5.116,-5.1262,-5.1122,-5.1106,-5.1118,-5.1102,-5.1072,-5.1061,-5.1004,-5.1086,-5.1095,-5.1175,-5.1006,-5.1294,-5.1306,-5.1316,-5.148,-5.1507,-5.1531,0,0,0,0,0,-5.1135,-5.1249,-5.1201,-5.1208,-5.1223,-5.1266,-5.1268,-5.1199,-5.1125,-5.1176,-5.114,-5.1062,-5.1162,-5.1095,-5.1104,-5.1187,-5.1289,-5.1303,-5.1316,-5.1469,-5.1502,-5.153,0,0,0,0,0,0,-5.1302,-5.1242,-5.1189,-5.1293,-5.1286,-5.124,-5.1302,-5.1236,-5.125,-5.1235,-5.1149,-5.1144,-5.1236,-5.1219,-5.1146,-5.1317,-5.1212,-5.1228,-5.1325,-5.1356,-5.1381,-5.1384,-5.101,0,0,0,0,0,-5.135,-5.139,-5.1336,-5.1433,-5.1432,-5.1369,-5.1385,-5.1332,-5.1321,-5.1318,-5.1288,-5.1282,-5.1311,-5.1333,-5.1357,-5.1477,-5.1468,-5.1538,-5.1563,-5.1584,-5.1599,-5.1661,-5.1691,-5.1367,-5.1366,-5.1366,0,0,-5.1452,-5.1424,-5.1455,-5.1466,-5.1454,-5.1497,-5.1367,-5.1419,-5.145,-5.1326,-5.1399,-5.1377,-5.1364,-5.1465,-5.1507,-5.1453,-5.1687,-5.1601,-5.1618,-5.1622,-5.1678,-5.1709,-5.1736,-5.1376,-5.1374,-5.1372,0,0,-5.1659,-5.1642,-5.172,-5.1711,-5.1694,-5.165,-5.167,-5.1633,-5.1614,-5.1685,-5.1593,-5.1629,-5.1682,-5.1677,-5.1681,-5.1885,-5.1814,-5.1895,-5.2027,-5.2088,-5.2114,-5.2136,-5.2209,-5.2236,-5.191,-5.1911,-5.1911,0,-5.1787,-5.1848,-5.177,-5.1827,-5.1835,-5.1723,-5.1802,-5.1797,-5.179,-5.1798,-5.1737,-5.18,-5.1784,-5.1881,-5.1931,-5.1938,-5.1958,-5.1899,-5.2116,-5.2138,-5.2157,-5.2226,-5.2254,-5.1921,-5.1919,-5.1918,-5.1917,0,-5.2007,-5.205,-5.2116,-5.211,-5.2125,-5.2193,-5.2126,-5.2151,-5.2097,-5.206,-5.2134,-5.211,-5.2128,-5.2147,-5.2095,-5.2237,-5.2204,-5.2131,-5.2023,-5.22,-5.2263,-5.2288,-5.1935,-5.1931,-5.1928,-5.1926,0,0,-5.2319,-5.2267,-5.2293,-5.2289,-5.2261,-5.2294,-5.2357,-5.2372,-5.2395,-5.2394,-5.2445,-5.2492,-5.2424,-5.2429,-5.2375,-5.2429,-5.2592,-5.2349,-5.2348,-5.2396,-5.2748,-5.2803,-5.2835,-5.2544,-5.2549,-5.2553,-5.2749,0,-5.2517,-5.262,-5.2551,-5.2667,-5.2706,-5.26,-5.2654,-5.2644,-5.2612,-5.2641,-5.2604,-5.2639,-5.2547,-5.2549,-5.2597,-5.2562,-5.2662,-5.2547,-5.2592,-5.2595,-5.2599,-5.2867,-5.2926,-5.3112,-5.2773,-5.2777,-5.278,0,-5.2762,-5.2769,-5.2889,-5.2852,-5.2866,-5.2917,-5.2924,-5.2953,-5.294,-5.2912,-5.2917,-5.285,-5.291,-5.2803,-5.2885,-5.2809,-5.2823,-5.2808,-5.2814,-5.2816,-5.2699,-5.2877,-5.317,-5.3198,-5.2818,-5.2815,-5.2812,0,-5.2978,-5.3018,-5.3094,-5.3093,-5.3053,-5.3091,-5.3076,-5.3056,-5.307,-5.3077,-5.3085,-5.31,-5.3109,-5.3123,-5.3061,-5.2989,-5.3152,-5.304,-5.3131,-5.3133,-5.3171,-5.3169,-5.347,-5.318,-5.3179,-5.3179,-5.3178,0,-5.3207,-5.3284,-5.319,-5.3237,-5.332,-5.324,-5.3325,-5.3299,-5.3282,-5.3323,-5.3232,-5.3273,-5.3189,-5.3221,-5.3173,-5.3248,-5.3253,-5.3233,-5.322,-5.3241,-5.3244,-5.325,-5.3236,-5.3186,-5.3185,-5.3183,-5.3182,0,-5.3463,-5.3403,-5.3479,-5.3433,-5.3424,-5.3487,-5.3449,-5.3491,-5.3451,-5.3504,-5.3511,-5.345,-5.3483,-5.3423,-5.3449,-5.3416,-5.3522,-5.3488,-5.3527,-5.3517,-5.3611,-5.3603,-5.3927,-5.3965,-5.3651,-5.3654,-5.3656,0,-5.3613,-5.3669,-5.3629,-5.3649,-5.3639,-5.3672,-5.3684,-5.3608,-5.3625,-5.3613,-5.3657,-5.3681,-5.3697,-5.3755,-5.3714,-5.3733,-5.3699,-5.3811,-5.3702,-5.3722,-5.3701,-5.3699,-5.3704,-5.3834,-5.3838,-5.3841,-5.3844,0,-5.3886,-5.3853,-5.3873,-5.3884,-5.3901,-5.3906,-5.3905,-5.3927,-5.3845,-5.387,-5.3901,-5.3913,-5.3938,-5.3965,-5.3974,-5.3959,-5.3889,-5.3878,-5.39,-5.3924,-5.3943,-5.3934,-5.3588,-5.3871,-5.3869,-5.3867,-5.3865,-5.3864,-5.4093,-5.4138,-5.4116,-5.4142,-5.4133,-5.4133,-5.417,-5.4134,-5.4159,-5.4172,-5.4126,-5.4168,-5.4152,-5.4157,-5.415,-5.4183,-5.4133,-5.4165,-5.4173,-5.4183,-5.4198,-5.3938,-5.4184,-5.4183,-5.4182,-5.4182,-5.4181,0,-5.4361,-5.4341,-5.4366,-5.4366,-5.4387,-5.4316,-5.4311,-5.4333,-5.4371,-5.4362,-5.4378,-5.4415,-5.4439,-5.44,-5.4418,-5.4452,-5.442,-5.4459,-5.4456,-5.4454,-5.4241,-5.422,-5.4485,-5.4485,-5.4485,-5.4485,-5.4485,-5.4485,-5.4503,-5.4575,-5.454,-5.4606,-5.4586,-5.4625,-5.4628,-5.4628,-5.462,-5.4664,-5.4683,-5.4656,-5.4635,-5.4651,-5.4671,-5.4658,-5.467,-5.472,-5.4697,-5.4499,-5.4469,-5.4441,-5.4421,-5.4723,-5.4724,-5.4907,-5.4909,-5.491]},{"header":{"parameterUnit":"m.s-1","parameterCategory":1,"la1":30.2991,"la2":30.254,"lo1":-89.0895,"lo2":-89.0444,"dy":0.0017,"dx":0.0017,"nx":28,"ny":28,"refTime":"2023-11-12T09:00:00:Z","depth":0,"parameterNumber":3,"parameterNumberName":"V-component_of_WINDS"},"data":[0,0,0,0,0,0,0,0,0,0,0,0,0,0,0,0,0,0,0,0,0,0,0,0,0,0,0,0,0,0,0,0,0,0,0,0,0,0,0,0,0,0,0,0,0,0,0,0,0,0,0,0,0,0,0,0,0,0,-4.3031,-4.3032,0,-4.3064,-4.3064,-4.3064,-4.3006,-4.3004,-4.3002,-4.3,-4.3031,-4.3034,-4.3036,0,0,0,0,0,0,0,0,0,0,0,0,0,-4.2916,-4.2918,-4.3031,-4.3032,-4.3032,-4.3064,-4.3064,-4.3064,-4.3006,-4.3004,-4.3002,-4.2999,-4.303,-4.3034,-4.3037,0,0,0,0,0,0,0,0,0,0,0,0,0,-4.2959,-4.2919,-4.3031,-4.3007,-4.3005,-4.3063,-4.3064,-4.3064,-4.3007,-4.3004,-4.3001,-4.2998,-4.3029,-4.3033,-4.3037,-4.312,0,0,-4.3049,-4.3051,0,0,0,0,0,0,0,0,-4.2956,-4.2963,-4.301,-4.3009,-4.3007,-4.3028,-4.3035,-4.3083,-4.3008,-4.3006,-4.3,-4.2997,-4.3032,-4.3036,-4.3048,-4.3121,-4.3123,-4.305,-4.3052,-4.3054,-4.3055,0,0,0,0,0,0,0,-4.2953,-4.2961,-4.3044,-4.3011,-4.3009,-4.2993,-4.2996,-4.3043,-4.3035,-4.3006,-4.3002,-4.3007,-4.3031,-4.3045,-4.3049,-4.3123,-4.3049,-4.3053,-4.3055,-4.3057,-4.3264,-4.3267,0,0,0,0,0,0,-4.2954,-4.2959,-4.3043,-4.3045,-4.2974,-4.2998,-4.3001,-4.3024,-4.3034,-4.3033,-4.3009,-4.3004,-4.3039,-4.3044,-4.3049,-4.3146,-4.3054,-4.3057,-4.306,-4.3261,-4.3265,-4.3268,0,0,0,0,0,0,-4.2952,-4.2962,-4.3041,-4.3001,-4.301,-4.3003,-4.3029,-4.3026,-4.304,-4.3037,-4.3035,-4.3025,-4.3037,-4.3044,-4.3103,-4.3146,-4.3059,-4.3063,-4.3257,-4.3262,-4.3267,-4.3341,0,0,0,0,0,0,-4.2949,-4.2961,-4.2994,-4.3002,-4.3012,-4.3095,-4.3032,-4.3029,-4.3047,-4.304,-4.3051,-4.305,-4.3035,-4.3097,-4.3107,-4.315,-4.3066,-4.3253,-4.326,-4.3265,-4.3335,-4.3348,-4.3359,0,0,0,0,0,-4.2945,-4.3013,-4.2996,-4.3006,-4.3053,-4.3098,-4.3104,-4.3086,-4.3051,-4.3083,-4.308,-4.305,-4.314,-4.3104,-4.3114,-4.3159,-4.3251,-4.3258,-4.3265,-4.3329,-4.3345,-4.3358,0,0,0,0,0,0,-4.301,-4.3014,-4.2995,-4.3068,-4.3083,-4.3088,-4.3128,-4.3104,-4.3129,-4.3121,-4.3098,-4.3101,-4.3164,-4.3167,-4.3127,-4.3239,-4.3189,-4.3199,-4.3235,-4.325,-4.3262,-4.3259,-4.3069,0,0,0,0,0,-4.3033,-4.307,-4.3071,-4.3136,-4.3145,-4.3135,-4.3154,-4.3139,-4.3154,-4.316,-4.3162,-4.3176,-4.3208,-4.3229,-4.3258,-4.3335,-4.3335,-4.3371,-4.3383,-4.3393,-4.3401,-4.3441,-4.3456,-4.3291,-4.3291,-4.3291,0,0,-4.3081,-4.3087,-4.3112,-4.3149,-4.3159,-4.3198,-4.3141,-4.3184,-4.3212,-4.3166,-4.3222,-4.3224,-4.3238,-4.3306,-4.3336,-4.3311,-4.3447,-4.3402,-4.341,-4.3413,-4.345,-4.3465,-4.3479,-4.3296,-4.3295,-4.3295,0,0,-4.3187,-4.3197,-4.3251,-4.3262,-4.3278,-4.3271,-4.3284,-4.3292,-4.3292,-4.3348,-4.3314,-4.3346,-4.3401,-4.3412,-4.3425,-4.3535,-4.3507,-4.3545,-4.3608,-4.3647,-4.3659,-4.3671,-4.3709,-4.3723,-4.3553,-4.3553,-4.3553,0,-4.3244,-4.3301,-4.3282,-4.3327,-4.3344,-4.3304,-4.3358,-4.337,-4.3394,-4.3406,-4.3378,-4.3445,-4.3452,-4.3521,-4.3548,-4.356,-4.3573,-4.3543,-4.3659,-4.3671,-4.3681,-4.3717,-4.3731,-4.3558,-4.3557,-4.3557,-4.3556,0,-4.337,-4.341,-4.3452,-4.3477,-4.3498,-4.3548,-4.3534,-4.3558,-4.3541,-4.3536,-4.3593,-4.36,-4.3629,-4.3644,-4.3628,-4.3711,-4.3695,-4.3663,-4.3613,-4.3701,-4.3735,-4.3748,-4.3564,-4.3562,-4.3561,-4.356,0,0,-4.3519,-4.3532,-4.3547,-4.3558,-4.3572,-4.3602,-4.3649,-4.3677,-4.3698,-4.3715,-4.3753,-4.3801,-4.3771,-4.3786,-4.3771,-4.3805,-4.389,-4.3769,-4.3769,-4.379,-4.398,-4.4003,-4.402,-4.3871,-4.3874,-4.3876,-4.3979,0,-4.3624,-4.3706,-4.3689,-4.3769,-4.3804,-4.3767,-4.3808,-4.382,-4.3817,-4.3846,-4.3842,-4.3876,-4.3835,-4.3843,-4.3876,-4.3873,-4.3927,-4.3865,-4.3905,-4.3907,-4.3903,-4.4037,-4.4062,-4.4159,-4.3992,-4.3994,-4.3995,0,-4.3758,-4.3781,-4.3864,-4.3871,-4.3886,-4.3923,-4.3947,-4.3976,-4.3988,-4.3983,-4.4,-4.3977,-4.4023,-4.3972,-4.4033,-4.3991,-4.4006,-4.4007,-4.401,-4.4013,-4.3956,-4.4043,-4.4189,-4.4203,-4.4016,-4.4014,-4.4013,0,-4.3857,-4.3908,-4.3965,-4.3975,-4.3985,-4.4011,-4.4017,-4.4027,-4.4045,-4.4066,-4.4077,-4.4103,-4.4117,-4.4137,-4.4121,-4.4086,-4.4185,-4.4133,-4.4181,-4.4182,-4.4203,-4.4202,-4.4354,-4.4215,-4.4215,-4.4214,-4.4214,0,-4.3975,-4.4028,-4.4009,-4.4044,-4.4101,-4.408,-4.4137,-4.4137,-4.4146,-4.418,-4.4149,-4.418,-4.4158,-4.4188,-4.4176,-4.4228,-4.4235,-4.4231,-4.4227,-4.4234,-4.4234,-4.4243,-4.4236,-4.4218,-4.4217,-4.4216,-4.4216,0,-4.4096,-4.4086,-4.4144,-4.4149,-4.4151,-4.4193,-4.4196,-4.4227,-4.4222,-4.4264,-4.4273,-4.4263,-4.4296,-4.4283,-4.4318,-4.431,-4.4376,-4.4364,-4.4372,-4.4369,-4.4417,-4.4413,-4.458,-4.46,-4.4449,-4.445,-4.4451,0,-4.4172,-4.4211,-4.422,-4.424,-4.4248,-4.4281,-4.4299,-4.428,-4.4299,-4.4316,-4.4346,-4.4376,-4.4399,-4.4453,-4.4449,-4.4475,-4.4463,-4.4519,-4.4466,-4.4471,-4.4462,-4.446,-4.4463,-4.453,-4.4532,-4.4533,-4.4534,0,-4.4308,-4.43,-4.4328,-4.4354,-4.4377,-4.4396,-4.4412,-4.4431,-4.4412,-4.4436,-4.4469,-4.4487,-4.4523,-4.4553,-4.4576,-4.458,-4.4554,-4.4551,-4.4563,-4.457,-4.4573,-4.4571,-4.44,-4.4547,-4.4546,-4.4545,-4.4544,-4.4544,-4.4407,-4.444,-4.4451,-4.4483,-4.4493,-4.4509,-4.4538,-4.4536,-4.4564,-4.4592,-4.4578,-4.4617,-4.4627,-4.4655,-4.4663,-4.4692,-4.467,-4.4688,-4.4693,-4.4697,-4.4703,-4.4569,-4.4696,-4.4696,-4.4696,-4.4695,-4.4695,0,-4.4541,-4.4546,-4.4575,-4.4599,-4.4624,-4.4598,-4.4614,-4.4636,-4.4671,-4.4683,-4.4706,-4.4744,-4.4772,-4.4771,-4.4797,-4.482,-4.4809,-4.4828,-4.4825,-4.4827,-4.4722,-4.4709,-4.4836,-4.4836,-4.4836,-4.4836,-4.4836,-4.4836,-4.4613,-4.4667,-4.4661,-4.4719,-4.4723,-4.4761,-4.4772,-4.4786,-4.4796,-4.484,-4.4864,-4.4862,-4.4868,-4.4894,-4.4919,-4.4918,-4.4928,-4.4952,-4.4946,-4.4848,-4.4834,-4.4821,-4.4808,-4.4954,-4.4954,-4.5047,-4.5048,-4.5049]}]]